FW2402 Weather Reports


Display with metric or nautical units.
time (UTC)temp
F
wind
direction
speed
MPH
gust
MPH
rain 1hr
in
rain 24hr
in
rain mn
in
humidity
%
barometer
mb
20210805065037 74 187 1.0 5.0 0.00 0.55 0.00 97 1015.8
20210805064523 74 190 2.0 5.0 0.00 0.55 0.00 97 1015.8
20210805064017 74 180 2.0 5.0 0.00 0.55 0.00 97 1015.9
20210805063523 74 0 1.0 4.0 0.00 0.55 0.00 97 1016.0
20210805063120 74 209 1.0 4.0 0.00 0.55 0.00 97 1015.9
20210805062526 74 0 0.0 4.0 0.00 0.55 0.00 97 1015.9
20210805062019 74 203 1.0 6.0 0.00 0.55 0.00 97 1016.0
20210805061527 74 179 2.0 6.0 0.00 0.55 0.00 97 1016.0
20210805061019 74 143 1.0 5.0 0.00 0.55 0.00 97 1016.0
20210805060517 74 175 1.0 6.0 0.00 0.55 0.00 97 1015.9
20210805060029 74 155 2.0 6.0 0.00 0.55 0.00 97 1016.0
20210805055517 74 0 2.0 5.0 0.00 0.55 0.00 97 1016.0
20210805055018 74 155 1.0 5.0 0.00 0.55 0.00 97 1016.1
20210805054558 74 163 2.0 5.0 0.00 0.55 0.00 97 1016.1
20210805054037 74 146 1.0 7.0 0.00 0.55 0.00 97 1016.1
20210805053526 74 165 1.0 7.0 0.00 0.55 0.00 97 1016.0
20210805053023 74 148 1.0 5.0 0.00 0.55 0.00 97 1016.2
20210805052522 74 173 1.0 7.0 0.00 0.55 0.00 97 1016.3
20210805052020 74 188 2.0 7.0 0.00 0.55 0.00 97 1016.4
20210805051617 74 191 1.0 5.0 0.00 0.55 0.00 97 1016.4
20210805051019 74 171 2.0 5.0 0.00 0.55 0.00 97 1016.5
20210805050519 74 176 2.0 4.0 0.00 0.55 0.00 97 1016.5
20210805050030 74 157 1.0 5.0 0.00 0.55 0.00 97 1016.6
20210805045530 74 171 1.0 5.0 0.00 0.55 0.00 97 1016.6
20210805045042 74 180 1.0 5.0 0.00 0.55 0.00 97 1016.6
20210805044551 74 178 1.0 5.0 0.00 0.55 0.00 97 1016.6
20210805044035 74 161 1.0 7.0 0.00 0.55 0.00 97 1016.7
20210805043520 74 169 0.0 7.0 0.00 0.55 0.00 97 1016.8
20210805043036 74 180 2.0 7.0 0.00 0.55 0.00 97 1016.8
20210805042520 74 169 2.0 6.0 0.00 0.55 0.00 97 1016.7
20210805042021 74 162 2.0 6.0 0.00 0.55 0.00 97 1016.7
20210805041554 74 180 3.0 8.0 0.00 0.55 0.00 97 1016.7
20210805041020 74 188 4.0 8.0 0.00 0.55 0.00 97 1016.7
20210805040520 74 113 3.0 8.0 0.00 0.55 0.00 97 1016.8
20210805040032 74 150 2.0 8.0 0.00 0.55 0.00 97 1016.8
20210805035537 74 132 3.0 8.0 0.00 0.55 0.55 97 1016.9
20210805035036 74 138 2.0 7.0 0.00 0.55 0.55 97 1017.0
20210805034539 74 147 2.0 6.0 0.00 0.55 0.55 97 1016.9
20210805034019 74 150 2.0 6.0 0.00 0.55 0.55 97 1016.9
20210805033517 74 165 3.0 6.0 0.00 0.55 0.55 97 1017.0
20210805033137 74 129 3.0 7.0 0.00 0.55 0.55 97 1016.9
20210805032526 74 127 3.0 7.0 0.00 0.55 0.55 97 1016.8
20210805032020 74 140 3.0 7.0 0.00 0.55 0.55 97 1016.9
20210805031616 74 150 2.0 5.0 0.00 0.55 0.55 97 1017.0
20210805031020 74 148 2.0 5.0 0.00 0.55 0.55 97 1016.9
20210805030519 74 178 2.0 5.0 0.00 0.55 0.55 97 1017.0
20210805030049 74 0 2.0 5.0 0.00 0.55 0.55 97 1016.9
20210805025541 74 168 2.0 5.0 0.00 0.55 0.55 97 1016.8
20210805025017 74 143 2.0 6.0 0.00 0.55 0.55 97 1016.8
20210805024545 74 138 2.0 6.0 0.00 0.55 0.55 97 1016.7
20210805024048 74 173 0.0 6.0 0.00 0.55 0.55 97 1016.6
20210805023522 74 182 2.0 5.0 0.00 0.55 0.55 97 1016.4
20210805023033 74 128 2.0 4.0 0.00 0.55 0.55 97 1016.4
20210805022528 74 148 2.0 4.0 0.00 0.55 0.55 97 1016.2
20210805022033 75 136 1.0 5.0 0.00 0.55 0.55 97 1016.2
20210805021622 75 140 2.0 5.0 0.00 0.55 0.55 97 1016.1
20210805021019 74 150 0.0 2.0 0.00 0.55 0.55 97 1016.2
20210805020522 74 150 0.0 4.0 0.00 0.55 0.55 97 1016.2
20210805020055 74 150 1.0 5.0 0.00 0.55 0.55 97 1016.1
20210805015516 75 170 2.0 9.0 0.00 0.90 0.55 97 1015.9
20210805015026 75 150 2.0 9.0 0.00 0.90 0.55 97 1015.8
20210805014528 75 139 3.0 7.0 0.00 0.90 0.55 97 1015.8
20210805014040 75 140 2.0 7.0 0.00 0.90 0.55 97 1015.7
20210805013532 75 168 2.0 7.0 0.00 0.90 0.55 97 1015.7
20210805013043 75 138 2.0 4.0 0.00 0.90 0.55 97 1015.8
20210805012517 75 152 2.0 4.0 0.00 0.90 0.55 97 1015.7
20210805012017 75 0 0.0 5.0 0.00 0.90 0.55 97 1015.6
20210805011530 75 0 1.0 5.0 0.00 0.90 0.55 97 1015.5
20210805011016 75 0 0.0 0.0 0.00 0.90 0.55 97 1015.4
20210805010520 74 0 0.0 0.0 0.00 0.90 0.55 97 1015.4
20210805010047 74 0 0.0 0.0 0.00 0.90 0.55 97 1015.5
20210805005527 74 0 0.0 0.0 0.00 0.95 0.55 97 1015.4
20210805005023 74 0 0.0 0.0 0.00 0.95 0.55 97 1015.5
20210805004614 75 0 0.0 0.0 0.00 0.95 0.55 97 1015.4
20210805004018 75 0 0.0 0.0 0.00 0.95 0.55 97 1015.5
20210805003539 75 0 0.0 0.0 0.00 0.95 0.55 97 1015.5
20210805003045 75 0 0.0 0.0 0.00 0.95 0.55 97 1015.6
20210805002519 75 0 0.0 2.0 0.00 0.95 0.55 97 1015.7
20210805002041 75 0 0.0 2.0 0.00 0.95 0.55 97 1015.6
20210805001541 75 0 1.0 2.0 0.00 0.95 0.55 97 1015.6
20210805001019 75 154 0.0 2.0 0.00 0.95 0.55 97 1015.7
20210805000517 75 0 0.0 2.0 0.00 0.95 0.55 97 1015.7
20210805000037 75 0 0.0 2.0 0.00 0.95 0.55 97 1015.7
20210804235542 75 154 0.0 1.0 0.00 0.95 0.55 97 1015.7
20210804235017 75 0 0.0 3.0 0.00 0.95 0.55 97 1015.7
20210804234523 75 176 1.0 3.0 0.00 0.95 0.55 97 1015.6
20210804234018 75 0 0.0 3.0 0.00 0.95 0.55 97 1015.5
20210804233526 75 209 0.0 3.0 0.00 0.95 0.55 97 1015.5
20210804233030 74 0 0.0 2.0 0.00 0.95 0.55 97 1015.6
20210804232518 74 257 0.0 3.0 0.00 0.95 0.55 97 1015.5
20210804232026 74 0 0.0 5.0 0.00 0.95 0.55 97 1015.3
20210804231543 74 190 2.0 6.0 0.00 0.95 0.55 97 1015.2
20210804231017 74 240 1.0 6.0 0.01 0.95 0.55 96 1015.3
20210804230530 74 0 0.0 8.0 0.01 0.95 0.55 96 1015.1
20210804230030 74 180 3.0 8.0 0.01 0.95 0.55 96 1014.9
20210804225519 74 175 2.0 9.0 0.01 0.96 0.55 96 1014.7
20210804225019 74 167 3.0 9.0 0.02 0.96 0.55 96 1014.7
20210804224543 74 169 3.0 7.0 0.03 0.96 0.55 96 1014.7
20210804224016 74 200 1.0 7.0 0.04 0.96 0.55 96 1014.7
20210804223519 74 165 1.0 7.0 0.06 0.96 0.55 96 1014.8
20210804223027 74 159 1.0 7.0 0.09 0.96 0.55 96 1014.9
20210804222519 74 0 3.0 10.0 0.11 0.96 0.55 96 1014.9
20210804222018 74 168 4.0 10.0 0.13 0.96 0.55 96 1014.9
20210804221555 74 194 1.0 5.0 0.14 0.96 0.55 96 1015.0
20210804221041 74 206 0.0 4.0 0.14 0.95 0.54 96 1015.1
20210804220518 74 263 1.0 4.0 0.16 0.95 0.54 96 1015.2
20210804220039 74 0 1.0 4.0 0.17 0.95 0.54 96 1015.2
20210804215532 74 181 0.0 4.0 0.18 0.94 0.52 96 1015.2
20210804215017 74 0 1.0 5.0 0.19 0.94 0.52 96 1015.2
20210804214530 74 198 2.0 5.0 0.19 0.93 0.52 96 1015.3
20210804214033 74 155 1.0 5.0 0.18 0.91 0.50 96 1015.3
20210804213518 74 0 0.0 2.0 0.17 0.89 0.48 96 1015.4
20210804213046 74 0 0.0 2.0 0.16 0.87 0.46 96 1015.3
20210804212519 74 0 0.0 4.0 0.15 0.85 0.44 96 1015.4
20210804212038 74 0 1.0 4.0 0.18 0.83 0.42 96 1015.5
20210804211549 74 278 1.0 4.0 0.18 0.82 0.41 96 1015.4
20210804211017 74 262 1.0 6.0 0.18 0.81 0.40 96 1015.3
20210804210521 75 253 2.0 9.0 0.16 0.79 0.38 96 1015.3
20210804210055 75 240 4.0 10.0 0.17 0.78 0.37 96 1015.2
20210804205529 75 0 3.0 13.0 0.16 0.76 0.35 95 1015.1
20210804205022 75 267 3.0 13.0 0.16 0.75 0.34 95 1015.1
20210804204524 75 172 1.0 7.0 0.15 0.74 0.33 96 1015.0
20210804204017 75 142 2.0 6.0 0.14 0.73 0.32 95 1015.0
20210804203520 75 267 1.0 8.0 0.13 0.72 0.31 96 1015.0
20210804203034 75 49 3.0 8.0 0.12 0.71 0.30 95 1014.9
20210804202518 75 205 0.0 2.0 0.10 0.69 0.28 95 1015.1
20210804202017 75 0 0.0 2.0 0.06 0.64 0.23 95 1015.3
20210804201534 75 0 0.0 2.0 0.06 0.64 0.23 95 1015.4
20210804201017 75 0 0.0 3.0 0.05 0.63 0.22 95 1015.5
20210804200517 75 0 1.0 3.0 0.05 0.63 0.22 95 1015.6
20210804200050 75 249 0.0 2.0 0.03 0.61 0.20 95 1015.6
20210804195518 75 0 0.0 6.0 0.02 0.60 0.19 95 1015.6
20210804195028 75 182 2.0 7.0 0.01 0.58 0.18 95 1015.5
20210804194535 75 254 2.0 8.0 0.01 0.58 0.18 95 1015.4
20210804194028 75 257 3.0 8.0 0.01 0.58 0.18 95 1015.2
20210804193529 75 271 2.0 7.0 0.01 0.58 0.18 95 1015.3
20210804193112 75 236 3.0 7.0 0.01 0.58 0.18 95 1015.4
20210804192517 75 241 2.0 6.0 0.01 0.58 0.18 95 1015.4
20210804192019 75 0 0.0 3.0 0.00 0.58 0.17 95 1015.4
20210804191521 75 0 0.0 7.0 0.00 0.58 0.17 95 1015.3
20210804191037 76 192 1.0 7.0 0.00 0.58 0.17 95 1015.5
20210804190519 76 196 0.0 7.0 0.01 0.58 0.17 95 1015.5
20210804190028 76 266 0.0 7.0 0.01 0.58 0.17 95 1015.5
20210804185516 76 169 1.0 7.0 0.01 0.58 0.17 95 1015.5
20210804185026 76 140 2.0 6.0 0.01 0.58 0.17 95 1015.7
20210804184548 76 0 0.0 3.0 0.03 0.58 0.17 95 1015.7
20210804184018 76 185 0.0 4.0 0.08 0.58 0.17 95 1015.6
20210804183524 76 165 0.0 4.0 0.13 0.58 0.17 95 1015.6
20210804183027 76 165 1.0 4.0 0.13 0.58 0.17 95 1015.7
20210804182544 75 173 0.0 4.0 0.13 0.58 0.17 94 1015.7
20210804182039 75 173 1.0 4.0 0.13 0.58 0.17 94 1015.7
20210804181554 75 264 0.0 4.0 0.13 0.58 0.17 94 1015.8
20210804181018 75 264 1.0 7.0 0.13 0.58 0.17 94 1015.9
20210804180518 75 263 1.0 7.0 0.12 0.57 0.16 93 1016.0
20210804180048 75 236 2.0 10.0 0.12 0.57 0.16 93 1016.1
20210804175520 76 282 3.0 10.0 0.12 0.57 0.16 92 1016.0
20210804175022 76 201 2.0 19.0 0.12 0.57 0.16 91 1015.9
20210804174549 77 262 7.0 19.0 0.10 0.55 0.14 88 1015.7
20210804174024 80 220 3.0 11.0 0.05 0.50 0.09 87 1015.9
20210804173522 81 272 3.0 9.0 0.00 0.45 0.04 85 1015.8
20210804173038 82 236 3.0 12.0 0.00 0.45 0.04 83 1015.6
20210804172517 82 236 3.0 12.0 0.00 0.45 0.04 81 1015.8
20210804172045 83 166 3.0 10.0 0.00 0.45 0.04 80 1015.7
20210804171543 84 262 3.0 10.0 0.00 0.45 0.04 80 1015.3
20210804171047 84 158 3.0 12.0 0.00 0.45 0.04 81 1015.1
20210804170521 84 216 5.0 14.0 0.00 0.45 0.04 80 1015.4
20210804170059 85 187 3.0 14.0 0.00 0.45 0.04 80 1015.4
20210804165529 86 175 2.0 11.0 0.00 0.45 0.04 80 1015.4
20210804165019 86 241 2.0 10.0 0.00 0.45 0.04 81 1015.4
20210804164602 85 182 3.0 10.0 0.00 0.45 0.04 79 1015.4
20210804164020 85 197 3.0 10.0 0.00 0.45 0.04 82 1015.4
20210804163519 85 208 2.0 5.0 0.00 0.45 0.04 82 1015.6
20210804163031 85 163 0.0 7.0 0.00 0.45 0.04 84 1015.5
20210804162557 84 252 2.0 7.0 0.00 0.45 0.04 82 1015.6
20210804162038 84 191 2.0 6.0 0.00 0.45 0.04 83 1015.7
20210804161535 84 297 1.0 6.0 0.00 0.45 0.04 86 1015.6
20210804161022 83 0 1.0 7.0 0.00 0.45 0.04 85 1015.8
20210804160538 83 270 2.0 7.0 0.00 0.45 0.04 85 1015.9
20210804160106 83 204 1.0 7.0 0.00 0.45 0.04 84 1016.0
20210804155516 83 197 2.0 6.0 0.00 0.45 0.04 84 1016.1
20210804155017 83 229 1.0 8.0 0.00 0.45 0.04 84 1016.1
20210804154554 83 347 3.0 9.0 0.00 0.45 0.04 84 1016.2
20210804154019 83 182 4.0 9.0 0.00 0.45 0.04 84 1016.1
20210804153516 83 191 3.0 8.0 0.00 0.45 0.04 84 1016.1
20210804153025 82 0 2.0 7.0 0.00 0.45 0.04 87 1016.0
20210804152519 82 250 1.0 6.0 0.00 0.45 0.04 88 1016.0
20210804152019 81 177 2.0 5.0 0.00 0.45 0.04 88 1016.0
20210804151520 81 176 1.0 7.0 0.00 0.45 0.04 88 1016.1
20210804151022 80 180 1.0 7.0 0.00 0.45 0.04 87 1016.2
20210804150518 81 259 1.0 4.0 0.00 0.45 0.04 87 1016.2
20210804150045 81 265 1.0 6.0 0.00 0.45 0.04 87 1016.2
20210804145517 81 292 1.0 9.0 0.00 0.45 0.04 87 1016.2
20210804145018 81 183 3.0 11.0 0.00 0.45 0.04 86 1016.1
20210804144525 81 252 6.0 11.0 0.00 0.45 0.04 85 1016.0
20210804144019 81 200 3.0 9.0 0.00 0.45 0.04 87 1016.0
20210804143518 81 264 2.0 10.0 0.00 0.45 0.04 89 1015.9
20210804143116 80 221 1.0 10.0 0.00 0.45 0.04 92 1015.8
20210804142518 79 261 2.0 7.0 0.00 0.45 0.04 93 1015.8
20210804142025 78 0 0.0 4.0 0.00 0.45 0.04 94 1015.7
20210804141606 78 254 0.0 2.0 0.00 0.45 0.04 94 1015.7
20210804141017 77 254 1.0 4.0 0.00 0.45 0.04 93 1015.5
20210804140536 77 0 1.0 4.0 0.00 0.45 0.04 93 1015.5
20210804140044 77 0 0.0 4.0 0.00 0.45 0.04 93 1015.3
20210804135516 77 0 0.0 4.0 0.00 0.45 0.04 94 1015.3
20210804135016 77 263 0.0 4.0 0.00 0.45 0.04 94 1015.2
20210804134537 77 267 1.0 4.0 0.00 0.45 0.04 94 1015.3
20210804134019 76 0 0.0 3.0 0.00 0.45 0.04 94 1015.3
20210804133518 76 270 1.0 7.0 0.00 0.45 0.04 94 1015.3
20210804133058 76 269 1.0 7.0 0.00 0.45 0.04 95 1015.4
20210804132520 76 236 1.0 6.0 0.00 0.45 0.04 95 1015.3
20210804132035 76 174 1.0 6.0 0.00 0.45 0.04 95 1015.3
20210804131609 76 220 2.0 6.0 0.00 0.45 0.04 95 1015.3
20210804131028 76 259 1.0 6.0 0.00 0.45 0.04 96 1015.5
20210804130533 76 248 1.0 6.0 0.00 0.45 0.04 96 1015.5
20210804130025 75 0 1.0 6.0 0.00 0.45 0.04 96 1015.3
20210804125528 75 0 1.0 6.0 0.00 0.49 0.04 96 1015.2
20210804125017 75 223 1.0 6.0 0.00 0.49 0.04 96 1015.1
20210804124534 75 145 0.0 6.0 0.00 0.49 0.04 96 1015.1
20210804124030 75 199 2.0 6.0 0.00 0.49 0.04 96 1015.1
20210804123520 75 179 1.0 8.0 0.00 0.49 0.04 97 1015.1
20210804123052 75 207 1.0 8.0 0.00 0.49 0.04 97 1014.9
20210804122526 75 320 2.0 7.0 0.00 0.49 0.04 97 1014.7
20210804122019 75 171 2.0 8.0 0.00 0.49 0.04 97 1014.6
20210804121557 75 186 2.0 10.0 0.00 0.49 0.04 97 1014.7
20210804121022 75 240 3.0 10.0 0.00 0.49 0.04 97 1014.9
20210804120523 75 178 3.0 7.0 0.00 0.49 0.04 97 1014.9
20210804120052 74 173 2.0 5.0 0.00 0.49 0.04 97 1015.0
20210804115526 74 183 2.0 5.0 0.00 0.70 0.04 97 1015.1
20210804115027 74 0 2.0 5.0 0.00 0.70 0.04 97 1015.0
20210804114603 74 169 3.0 5.0 0.00 0.70 0.04 97 1014.9
20210804114023 74 0 2.0 6.0 0.00 0.70 0.04 97 1014.7
20210804113540 74 167 2.0 6.0 0.00 0.70 0.04 97 1014.6
20210804113040 74 162 2.0 5.0 0.00 0.70 0.04 97 1014.6
20210804112519 74 171 1.0 3.0 0.00 0.70 0.04 97 1014.5
20210804112040 74 172 0.0 4.0 0.00 0.70 0.04 97 1014.6
20210804111525 74 0 1.0 4.0 0.00 0.70 0.04 97 1014.4
20210804111020 74 0 0.0 4.0 0.00 0.70 0.04 97 1014.3
20210804110518 74 169 0.0 4.0 0.00 0.70 0.04 97 1014.2
20210804110059 74 0 0.0 4.0 0.00 0.70 0.04 97 1014.2
20210804105523 74 0 0.0 4.0 0.00 0.89 0.04 97 1014.2
20210804105026 74 168 0.0 4.0 0.01 0.89 0.04 97 1014.1
20210804104529 74 0 0.0 3.0 0.01 0.89 0.04 97 1014.2
20210804104040 74 209 0.0 4.0 0.02 0.89 0.04 97 1014.0
20210804103516 74 221 1.0 5.0 0.02 0.89 0.04 97 1013.9
20210804103032 74 0 1.0 5.0 0.03 0.89 0.04 96 1013.8
20210804102519 74 201 1.0 3.0 0.03 0.89 0.04 96 1013.7
20210804102022 74 207 0.0 4.0 0.03 0.89 0.04 96 1013.6
20210804101538 74 173 1.0 4.0 0.03 0.89 0.04 96 1013.6
20210804101017 74 224 1.0 6.0 0.03 0.89 0.04 96 1013.6
20210804100518 74 196 1.0 6.0 0.03 0.89 0.04 96 1013.6
20210804100050 74 187 1.0 5.0 0.04 0.89 0.04 97 1013.7
20210804095518 74 217 1.0 5.0 0.04 0.98 0.04 97 1013.6
20210804095018 74 205 0.0 6.0 0.03 0.97 0.03 97 1013.7
20210804094519 74 250 0.0 6.0 0.03 0.97 0.03 97 1013.7
20210804094018 74 0 0.0 2.0 0.02 0.96 0.02 97 1013.7
20210804093543 74 0 0.0 3.0 0.02 0.96 0.02 97 1013.6
20210804093029 74 0 0.0 4.0 0.01 0.95 0.01 96 1013.5
20210804092519 74 193 1.0 4.0 0.01 0.95 0.01 96 1013.4
20210804092021 74 168 1.0 4.0 0.01 0.95 0.01 96 1013.3
20210804091526 74 168 1.0 5.0 0.01 0.95 0.01 96 1013.2
20210804091023 74 154 1.0 5.0 0.01 0.95 0.01 96 1013.2
20210804090526 74 0 1.0 4.0 0.01 0.95 0.01 96 1013.3
20210804090035 74 0 0.0 5.0 0.00 0.94 0.00 96 1013.3
20210804085538 74 0 1.0 5.0 0.00 0.94 0.00 96 1013.2
20210804085019 74 0 0.0 3.0 0.00 0.94 0.00 96 1013.2
20210804084537 74 0 0.0 3.0 0.00 0.94 0.00 96 1013.3
20210804084018 74 0 0.0 2.0 0.00 0.94 0.00 96 1013.3
20210804083518 74 0 0.0 3.0 0.00 0.94 0.00 96 1013.4
20210804083041 74 246 1.0 4.0 0.00 0.94 0.00 96 1013.4
20210804082519 74 282 1.0 4.0 0.00 0.94 0.00 96 1013.5
20210804082027 74 268 1.0 4.0 0.00 0.94 0.00 96 1013.4
20210804081529 74 270 1.0 7.0 0.00 0.94 0.00 96 1013.4
20210804081033 74 260 3.0 7.0 0.00 0.94 0.00 96 1013.4
20210804080519 74 281 2.0 6.0 0.00 0.94 0.00 96 1013.5
20210804080102 74 227 0.0 3.0 0.00 0.94 0.00 96 1013.2
20210804075519 74 0 0.0 3.0 0.00 0.94 0.00 96 1013.1
20210804075019 74 0 0.0 3.0 0.00 0.94 0.00 96 1012.9
20210804074536 74 194 0.0 6.0 0.00 0.94 0.00 96 1013.0
20210804074019 74 213 0.0 7.0 0.00 0.94 0.00 96 1013.1
20210804073519 74 263 1.0 7.0 0.00 0.94 0.00 96 1013.3
20210804073049 74 281 1.0 8.0 0.00 0.94 0.00 96 1013.2
20210804072522 74 0 1.0 8.0 0.00 0.94 0.00 96 1013.3
20210804072031 75 241 1.0 6.0 0.00 0.94 0.00 96 1013.4
20210804071536 75 0 1.0 6.0 0.00 0.94 0.00 96 1013.4
20210804071031 75 0 0.0 4.0 0.00 0.94 0.00 96 1013.5
20210804070519 75 259 1.0 4.0 0.00 0.94 0.00 96 1013.5
20210804070031 75 0 0.0 4.0 0.00 0.94 0.00 96 1013.5
20210804065519 75 0 1.0 4.0 0.00 0.94 0.00 96 1013.7